FW5744 Weather Reports


Display with metric or nautical units.
time (UTC)temp
F
wind
direction
speed
MPH
gust
MPH
rain 1hr
in
rain 24hr
in
rain mn
in
humidity
%
barometer
mb
20260503232028 60 245 6.0 13.0 0.00 0.00 0.00 32 1010.9
20260503231528 60 245 6.0 14.0 0.00 0.00 0.00 31 1010.8
20260503231028 60 324 5.0 15.0 0.00 0.00 0.00 32 1010.8
20260503230528 60 359 5.0 16.0 0.00 0.00 0.00 32 1010.8
20260503230028 60 359 8.0 16.0 0.00 0.00 0.00 31 1010.7
20260503225527 61 290 5.0 14.0 0.00 0.00 0.00 32 1010.7
20260503225027 61 270 6.0 12.0 0.00 0.00 0.00 32 1010.6
20260503224526 61 359 4.0 14.0 0.00 0.00 0.00 31 1010.7
20260503224027 61 337 7.0 13.0 0.00 0.00 0.00 30 1010.8
20260503223525 61 253 5.0 14.0 0.00 0.00 0.00 30 1010.6
20260503223026 61 308 6.0 14.0 0.00 0.00 0.00 30 1010.6
20260503222525 61 334 6.0 18.0 0.00 0.00 0.00 29 1010.7
20260503222026 61 335 10.0 18.0 0.00 0.00 0.00 29 1010.6
20260503221532 61 359 9.0 14.0 0.00 0.00 0.00 29 1010.5
20260503221026 62 279 6.0 12.0 0.00 0.00 0.00 30 1010.6
20260503220527 62 286 6.0 16.0 0.00 0.00 0.00 29 1010.5
20260503220025 62 313 6.0 16.0 0.00 0.00 0.00 29 1010.6
20260503215523 61 262 5.0 14.0 0.00 0.00 0.00 30 1010.6
20260503215022 61 359 7.0 14.0 0.00 0.00 0.00 29 1010.6
20260503214525 61 293 6.0 17.0 0.00 0.00 0.00 29 1010.6
20260503214022 61 16 8.0 21.0 0.00 0.00 0.00 29 1010.6
20260503213524 61 293 10.0 21.0 0.00 0.00 0.00 29 1010.4
20260503213029 60 272 11.0 20.0 0.00 0.00 0.00 29 1010.5
20260503212522 61 278 10.0 17.0 0.00 0.00 0.00 29 1010.6
20260503212020 60 354 7.0 17.0 0.00 0.00 0.00 30 1010.5
20260503211521 60 318 9.0 20.0 0.00 0.00 0.00 29 1010.5
20260503211019 60 276 10.0 20.0 0.00 0.00 0.00 29 1010.5
20260503210519 60 310 12.0 19.0 0.00 0.00 0.00 29 1010.5
20260503210018 60 359 7.0 15.0 0.00 0.00 0.00 30 1010.5
20260503205518 60 12 11.0 19.0 0.00 0.00 0.00 30 1010.4
20260503205024 60 312 12.0 19.0 0.00 0.00 0.00 30 1010.4
20260503204523 60 359 11.0 19.0 0.00 0.00 0.00 30 1010.4
20260503204016 59 287 7.0 24.0 0.00 0.00 0.00 31 1010.3
20260503203519 59 342 10.0 24.0 0.00 0.00 0.00 30 1010.4
20260503203016 59 334 12.0 20.0 0.00 0.00 0.00 31 1010.4
20260503202523 59 260 8.0 21.0 0.00 0.00 0.00 32 1010.5
20260503202016 59 4 13.0 23.0 0.00 0.00 0.00 30 1010.6
20260503201526 59 339 8.0 17.0 0.00 0.00 0.00 32 1010.6
20260503201014 59 359 8.0 18.0 0.00 0.00 0.00 32 1010.6
20260503200514 58 350 9.0 19.0 0.00 0.00 0.00 32 1010.7
20260503200013 59 359 11.0 20.0 0.00 0.00 0.00 31 1010.7
20260503195513 58 314 9.0 20.0 0.00 0.00 0.00 32 1010.7
20260503195012 59 293 9.0 19.0 0.00 0.00 0.00 32 1010.7
20260503194511 58 287 6.0 21.0 0.00 0.00 0.00 32 1010.7
20260503194011 58 359 10.0 21.0 0.00 0.00 0.00 33 1010.9
20260503193511 58 16 6.0 22.0 0.00 0.00 0.00 34 1010.9
20260503193008 57 20 10.0 22.0 0.00 0.00 0.00 34 1010.9
20260503192508 57 8 10.0 23.0 0.00 0.00 0.00 33 1011.0
20260503192013 57 359 11.0 28.0 0.00 0.00 0.00 34 1011.1
20260503191508 56 311 14.0 28.0 0.00 0.00 0.00 34 1011.0
20260503191008 57 332 9.0 25.0 0.00 0.00 0.00 34 1011.1
20260503190507 57 359 14.0 25.0 0.00 0.00 0.00 34 1011.1
20260503190017 57 17 8.0 22.0 0.00 0.00 0.00 36 1011.0
20260503185506 56 359 5.0 22.0 0.00 0.00 0.00 36 1011.0
20260503185005 57 321 12.0 19.0 0.00 0.00 0.00 35 1011.1
20260503184507 57 269 6.0 15.0 0.00 0.00 0.00 37 1011.1
20260503184004 56 289 5.0 20.0 0.00 0.00 0.00 37 1011.4
20260503183507 56 324 8.0 21.0 0.00 0.00 0.00 36 1011.4
20260503183011 56 359 10.0 21.0 0.00 0.00 0.00 37 1011.5
20260503182502 56 341 6.0 21.0 0.00 0.00 0.00 37 1011.4
20260503182001 56 271 11.0 21.0 0.00 0.00 0.00 37 1011.5
20260503181623 55 318 11.0 20.0 0.00 0.00 0.00 38 1011.4
20260503181100 54 308 9.0 17.0 0.00 0.00 0.00 39 1011.5
20260503180600 54 332 7.0 20.0 0.00 0.00 0.00 40 1011.6
20260503180134 55 300 11.0 20.0 0.00 0.00 0.00 39 1011.5
20260503175601 54 345 11.0 19.0 0.00 0.00 0.00 40 1011.5
20260503175057 54 322 10.0 19.0 0.00 0.00 0.00 40 1011.6
20260503174558 53 46 8.0 21.0 0.00 0.00 0.00 41 1011.7
20260503174056 53 359 12.0 21.0 0.00 0.00 0.00 41 1011.8
20260503173556 53 318 11.0 18.0 0.00 0.00 0.00 42 1011.9
20260503173100 53 4 8.0 20.0 0.00 0.00 0.00 42 1011.7
20260503172600 53 295 11.0 20.0 0.00 0.00 0.00 40 1011.7
20260503172055 53 4 6.0 21.0 0.00 0.00 0.00 41 1011.8
20260503171556 53 359 10.0 21.0 0.00 0.00 0.00 42 1011.9
20260503171055 53 295 11.0 20.0 0.00 0.00 0.00 41 1011.9
20260503170555 53 349 8.0 17.0 0.00 0.00 0.00 41 1011.8
20260503150550 50 359 9.0 18.0 0.00 0.00 0.00 43 1012.2
20260503131041 47 8 9.0 18.0 0.00 0.00 0.00 55 1012.2
20260503130542 47 329 10.0 18.0 0.00 0.00 0.00 54 1012.2
20260503110536 45 309 10.0 16.0 0.00 0.00 0.00 57 1011.6
20260503081515 47 18 5.0 13.0 0.00 0.00 0.00 52 1010.5
20260503081009 47 43 6.0 13.0 0.00 0.00 0.00 51 1010.3
20260503080510 47 359 6.0 15.0 0.00 0.00 0.00 51 1010.2
20260503072504 48 48 5.0 12.0 0.00 0.00 0.00 50 1010.4
20260503072003 48 41 7.0 13.0 0.00 0.00 0.00 49 1010.3
20260503071501 48 28 8.0 13.0 0.00 0.00 0.00 49 1010.3
20260503071100 48 43 6.0 14.0 0.00 0.00 0.00 49 1010.4
20260503070600 49 27 6.0 14.0 0.00 0.00 0.00 48 1010.3
20260503070109 49 4 5.0 14.0 0.00 0.00 0.00 48 1010.3
20260503060111 50 8 7.0 12.0 0.00 0.00 0.00 46 1010.5
20260503055048 50 35 8.0 15.0 0.00 0.00 0.00 45 1010.4
20260503054546 50 359 8.0 15.0 0.00 0.00 0.00 45 1010.5
20260503054045 51 31 8.0 16.0 0.00 0.00 0.00 45 1010.6
20260503053544 51 15 6.0 16.0 0.00 0.00 0.00 46 1010.6
20260503053046 51 27 6.0 13.0 0.00 0.00 0.00 46 1010.6
20260503052543 51 45 5.0 12.0 0.00 0.00 0.00 46 1010.6
20260503052043 51 349 6.0 13.0 0.00 0.00 0.00 45 1010.7
20260503051542 51 354 5.0 14.0 0.00 0.00 0.00 45 1010.8
20260503051041 51 337 7.0 14.0 0.00 0.00 0.00 45 1010.9
20260503050541 51 48 7.0 13.0 0.00 0.00 0.00 45 1011.0
20260503050040 51 23 5.0 18.0 0.00 0.00 0.00 45 1010.9
20260503045540 51 27 6.0 18.0 0.00 0.00 0.00 44 1011.1
20260503045039 51 23 11.0 17.0 0.00 0.00 0.00 44 1011.0
20260503044607 52 23 7.0 14.0 0.00 0.00 0.00 44 1011.1
20260503044037 52 354 6.0 17.0 0.00 0.00 0.00 44 1011.1
20260503043536 52 31 11.0 17.0 0.00 0.00 0.00 43 1011.0
20260503043036 52 42 6.0 17.0 0.00 0.00 0.00 44 1011.1
20260503042535 52 345 10.0 15.0 0.00 0.00 0.00 43 1011.1
20260503042036 52 31 7.0 12.0 0.00 0.00 0.00 43 1011.0
20260503041533 52 359 3.0 11.0 0.00 0.00 0.00 44 1011.1
20260503041035 52 10 6.0 13.0 0.00 0.00 0.00 43 1011.2
20260503040531 52 31 7.0 13.0 0.00 0.00 0.00 43 1011.2
20260503040030 52 54 4.0 8.0 0.00 0.00 0.00 44 1011.2
20260503035530 52 50 3.0 9.0 0.00 0.00 0.00 44 1011.1
20260503035031 52 16 4.0 11.0 0.00 0.00 0.00 43 1011.0
20260503034532 53 20 7.0 12.0 0.00 0.00 0.00 43 1011.0
20260503034031 53 11 7.0 12.0 0.00 0.00 0.00 42 1011.1
20260503033528 53 359 5.0 13.0 0.00 0.00 0.00 43 1011.1
20260503033029 53 354 5.0 12.0 0.00 0.00 0.00 43 1010.9
20260503032529 53 345 5.0 11.0 0.00 0.00 0.00 43 1011.0
20260503032030 53 10 5.0 10.0 0.00 0.00 0.00 43 1011.1
20260503031528 53 4 5.0 10.0 0.00 0.00 0.00 42 1011.0
20260503031029 53 354 3.0 10.0 0.00 0.00 0.00 42 1011.0
20260503030527 53 16 3.0 13.0 0.00 0.00 0.00 42 1011.0
20260503030031 54 23 5.0 13.0 0.00 0.00 0.00 42 1011.1
20260503025529 54 18 6.0 12.0 0.00 0.00 0.00 42 1011.1
20260503025030 54 354 4.0 10.0 0.00 0.00 0.00 41 1011.1
20260503024527 54 4 6.0 12.0 0.00 0.00 0.00 41 1011.1
20260503024027 54 359 4.0 8.0 0.00 0.00 0.00 41 1011.0
20260503023526 54 354 2.0 11.0 0.00 0.00 0.00 41 1011.1
20260503023027 54 65 4.0 11.0 0.00 0.00 0.00 41 1011.0
20260503022526 54 359 4.0 11.0 0.00 0.00 0.00 41 1011.0
20260503022029 54 339 7.0 11.0 0.00 0.00 0.00 40 1011.0
20260503021527 54 39 6.0 11.0 0.00 0.00 0.00 40 1011.0
20260503021029 55 31 5.0 11.0 0.00 0.00 0.00 40 1010.9
20260503020529 55 359 5.0 11.0 0.00 0.00 0.00 40 1011.0
20260503020034 55 11 5.0 11.0 0.00 0.00 0.00 40 1011.1
20260503015526 55 354 4.0 13.0 0.00 0.00 0.00 40 1011.0
20260503015025 55 18 6.0 13.0 0.00 0.00 0.00 40 1011.0
20260503014526 55 4 5.0 11.0 0.00 0.00 0.00 40 1011.0
20260503014026 55 17 5.0 13.0 0.00 0.00 0.00 40 1011.1
20260503013526 55 12 5.0 9.0 0.00 0.00 0.00 40 1011.2
20260503013025 55 16 3.0 9.0 0.00 0.00 0.00 41 1011.2
20260503012525 56 324 3.0 10.0 0.00 0.00 0.00 40 1011.1
20260503012026 56 4 6.0 12.0 0.00 0.00 0.00 39 1011.2
20260503011524 56 17 7.0 12.0 0.00 0.00 0.00 39 1011.1
20260503011024 56 359 3.0 10.0 0.00 0.00 0.00 40 1011.0
20260503010525 56 348 5.0 12.0 0.00 0.00 0.00 39 1011.0
20260503010025 56 18 7.0 12.0 0.00 0.00 0.00 39 1011.1
20260503005524 56 354 5.0 12.0 0.00 0.00 0.00 40 1010.8
20260503005024 56 17 6.0 11.0 0.00 0.00 0.00 40 1010.8
20260503004523 56 359 5.0 12.0 0.00 0.00 0.00 39 1010.8
20260503004023 56 16 6.0 13.0 0.00 0.00 0.00 39 1010.7
20260503003523 57 344 6.0 13.0 0.00 0.00 0.00 39 1010.7
20260503003032 57 359 6.0 12.0 0.00 0.00 0.00 39 1010.5
20260503002523 57 316 5.0 12.0 0.00 0.00 0.00 39 1010.5
20260503002023 57 15 7.0 12.0 0.00 0.00 0.00 39 1010.4
20260503001523 57 23 3.0 10.0 0.00 0.00 0.00 39 1010.4
20260503001022 57 13 3.0 10.0 0.00 0.00 0.00 40 1010.5
20260503000523 57 16 4.0 10.0 0.00 0.00 0.00 39 1010.3
20260503000029 57 342 5.0 12.0 0.00 0.00 0.00 39 1010.2
20260502235523 58 50 3.0 12.0 0.00 0.00 0.00 39 1010.3
20260502235025 58 4 5.0 10.0 0.00 0.00 0.00 38 1010.2
20260502234542 58 4 3.0 8.0 0.00 0.00 0.00 39 1010.2
20260502234022 58 8 3.0 10.0 0.00 0.00 0.00 39 1010.3
20260502233521 58 27 6.0 10.0 0.00 0.00 0.00 38 1010.2
20260502233022 58 317 4.0 9.0 0.00 0.00 0.00 38 1010.2
20260502232521 58 340 2.0 9.0 0.00 0.00 0.00 38 1010.2